#timestamp,LO_Frequency,Hit,StdDev 
1689778815.0,286047002.1,N
1689778815.9,286047002.1,N
1689778835.8,286047001.8,N
1689778855.6,286047001.6,N
1689778875.4,286047003.6,N
1689778895.3,286047005.5,Y
1689778915.1,286047003.1,P
1689778935.8,286047005.4,P
1689778955.7,286047006.0,P
1689778975.5,286047004.8,Y
1689778995.4,286047001.3,P
1689779015.2,286047003.2,N
1689779035.0,286047003.2,N
1689779035.9,286047003.2,N
1689779055.8,286047001.6,N
1689779075.6,286047001.3,N
1689779095.4,286047003.5,Y
1689779115.3,286047002.3,P
1689779135.1,286047002.4,P
1689779155.9,286047000.1,N
1689779175.7,286047002.4,N
1689779195.5,286047001.6,N
1689779215.4,286047001.5,N
1689779235.2,286047004.0,Y
1689779255.0,286047002.6,P
1689779255.9,286047002.6,P
1689779275.8,286047002.1,P
1689779295.6,286047002.2,Y
1689779315.5,286047001.1,P
1689779335.3,286046998.6,N
1689779355.1,286047001.0,N
1689779375.9,286047000.4,N
1689779395.7,286047002.8,N
1689779415.6,286046999.7,N
1689779435.4,286047002.1,N
1689779455.2,286047002.7,N
1689779475.1,286047002.6,N
1689779476.0,286047002.6,N
1689779495.8,286047002.4,N
1689779515.6,286047000.0,N
1689779535.5,286046999.7,N
1689779555.3,286047002.7,N
1689779575.1,286047000.2,N
1689779595.9,286046999.7,N
1689779615.7,286046998.6,N
1689779635.6,286046998.6,N
1689779655.4,286047001.1,N
1689779675.2,286047000.7,N
1689779695.1,286046998.4,N
1689779696.0,286046998.4,N
1689779715.8,286046998.7,N
1689779735.6,286047001.0,N
1689779755.5,286047000.6,N
1689779775.3,286046998.1,N
1689779795.2,286047000.5,N
1689779815.9,286047001.1,N
1689779835.7,286046998.4,N
1689779855.6,286046998.8,N
1689779875.4,286046999.3,N
1689779895.2,286046999.1,N
1689779915.1,286046999.2,N
1689779916.0,286046999.2,N
1689779935.8,286046999.3,N
1689779955.7,286046998.3,N
1689779975.5,286046998.2,N
1689779995.3,286046998.2,N
1689780015.2,286046999.2,N
1689780035.0,286046997.3,N
1689780035.9,286046997.3,N
1689780055.8,286046997.7,N
1689780075.6,286046996.6,N
1689780095.4,286046999.6,N
1689780115.3,286046999.4,N
1689780135.1,286046999.0,N
1689780155.8,286046998.3,N
1689780175.7,286046998.8,N
1689780195.5,286046997.4,N
1689780245.4,286046997.0,E
1689780255.3,286046998.8,N
1689780275.1,286047000.3,P
1689780295.9,286047002.6,P
1689780315.7,286046999.7,N
1689780335.6,286046999.8,N
1689780355.4,286047002.7,N
1689780375.2,286047000.9,N
1689780395.1,286046998.4,N
1689780396.0,286046998.4,N
1689780415.8,286047000.7,N
1689780435.6,286047001.1,N
1689780455.5,286047001.1,N
1689780475.3,286047000.3,N
1689780495.2,286046998.2,N
1689780515.9,286047001.1,N
1689780535.7,286047000.9,N
1689780555.6,286046998.4,N
1689780575.4,286047001.1,N
1689780595.2,286047000.6,N
1689780615.1,286047000.9,N
1689780616.0,286047000.9,N
1689780635.8,286047001.1,N
1689780655.7,286047001.1,N
1689780675.5,286047001.2,N
1689780695.3,286047000.7,N
1689780715.2,286046998.5,N
1689780735.0,286046996.6,N
1689780735.9,286046996.6,N
1689780755.7,286046997.0,N
1689780775.6,286046995.7,N
1689780795.4,286046993.3,Y
1689780815.3,286046998.0,P
1689780835.1,286046995.2,P
1689780836.0,286046995.2,N
1689780855.8,286046993.6,Y
1689780875.7,286046998.1,P
1689780895.5,286046996.5,P
1689780915.4,286046999.1,N
1689780935.2,286046998.6,N
1689780955.0,286047000.7,N
1689780955.9,286047000.7,N
1689780975.8,286047000.7,N
1689780995.6,286046999.4,N
1689781015.5,286046998.8,N
1689781035.3,286046997.0,N
1689781055.1,286046996.6,N
1689781075.9,286046997.4,N
1689781095.7,286046997.2,N
1689781115.5,286046999.5,N
1689781135.4,286047000.9,N
1689781155.2,286047000.8,N
1689781175.0,286047000.4,N
1689781176.0,286047000.4,N
1689781195.8,286047001.8,N
1689781215.6,286047000.5,N
1689781235.5,286047000.5,N
1689781255.3,286047000.4,N
1689781275.1,286047000.9,N
1689781295.9,286046999.7,N
1689781315.7,286046999.8,N
1689781335.6,286047002.6,N
1689781355.4,286047001.3,N
1689781375.2,286047002.1,N
1689781395.1,286047002.5,N
1689781396.0,286047002.5,N
1689781415.8,286046998.5,N
1689781435.6,286047000.9,N
1689781455.5,286047000.5,N
1689781475.3,286047000.2,N
1689781495.2,286047002.0,N
1689781515.9,286047001.4,N
1689781535.7,286047004.3,N
1689781555.6,286047002.1,N
1689781575.4,286047003.8,N
1689781595.2,286047004.2,N
1689781615.1,286047004.2,N
1689781616.0,286047004.2,N
1689781635.8,286047003.7,N
1689781655.7,286047004.2,N
1689781675.5,286047003.8,N
1689781695.3,286047003.6,N
1689781715.2,286047003.0,N
1689781735.0,286047003.0,N
1689781735.9,286047003.0,N
1689781755.7,286047005.8,Y
1689781775.6,286047002.7,P
1689781795.4,286047000.2,N
1689781815.3,286046999.8,N
1689781835.1,286047002.2,N
1689781836.0,286047002.2,N
1689781855.8,286047002.0,N
1689781875.7,286047004.0,Y
1689781895.5,286047002.8,P
1689781915.4,286047002.6,P
1689781935.2,286046999.9,N
1689781955.0,286046999.7,N
1689781955.9,286046999.7,N
1689781975.8,286047002.6,N
1689781995.6,286047004.0,N
1689782015.4,286047001.8,N
1689782035.3,286047001.7,N
1689782055.1,286047002.0,N
1689782075.9,286047002.2,N
1689782095.7,286047001.5,N
1689782115.5,286047001.7,N
1689782135.4,286047004.3,Y
1689782155.2,286047001.9,P
1689782175.0,286046999.8,N
1689782175.9,286046999.8,N
1689782195.8,286046999.9,N
1689782215.6,286047000.8,N
1689782235.5,286046996.9,Y
1689782255.3,286046999.4,P
1689782275.1,286046998.9,N
1689782295.9,286046997.3,P
1689782315.7,286046999.2,N
1689782335.5,286047000.3,N
1689782355.4,286047000.7,N
1689782375.2,286047000.9,N
1689782395.1,286047000.6,N
1689782396.0,286047000.6,N
